Theta_e
349 348 348 349 349 349 351 350 348 350 349 348 347 346 342 341 338 334 333 335 334 338 335 336 342 347 349 351 348 348 348 349 352 348 347 346 349 348 345 347 347 347 346 345 345 346 345 345 345 345 345 346 345 345 344 345 345 344 344 344 344 343 343 344 344 344 344 344 344 344 344 344 345 344
352 349 349 350 347 349 350 349 349 351 351 347 347 346 346 347 340 339 335 336 338 337 338 336 340 350 350 349 348 349 349 354 350 347 348 346 348 347 343 345 345 345 344 343 342 343 344 344 344 344 345 344 343 342 342 343 343 343 343 343 343 343 343 343 342 342 342 342 343 343 343 343 343 343
352 351 349 351 349 350 351 352 348 350 351 348 347 347 347 346 345 344 340 334 340 340 339 337 342 344 349 346 346 348 348 353 349 346 347 350 352 344 347 343 343 342 342 341 340 341 341 341 341 342 342 342 341 341 342 342 342 343 343 343 342 341 340 339 338 339 339 339 340 340 341 341 341 341
352 351 350 352 351 352 351 351 350 347 351 351 348 348 347 347 346 346 343 338 338 341 338 340 344 344 349 349 346 348 348 352 348 346 347 357 346 348 350 342 342 340 340 340 339 339 338 337 338 340 341 342 341 342 342 342 342 341 339 339 339 338 337 337 337 337 337 337 338 338 338 339 339 340
353 352 351 353 354 355 353 352 350 348 349 351 349 348 346 344 347 346 343 339 338 343 345 342 341 344 347 347 347 346 345 349 348 347 346 352 350 348 345 347 340 338 338 338 338 338 337 337 337 338 339 340 341 341 341 341 340 338 337 337 337 336 335 334 335 335 336 335 335 335 336 336 337 337
354 353 352 352 354 356 354 352 351 348 347 349 345 347 345 344 346 348 344 341 339 338 343 343 345 343 345 342 349 346 344 345 349 348 345 344 347 348 347 344 344 338 337 337 337 337 336 336 336 337 338 339 341 340 341 340 336 335 337 335 333 333 333 334 333 332 332 333 333 333 333 333 333 334
356 353 353 352 353 353 352 353 352 351 349 349 347 345 347 347 347 348 347 344 339 338 340 346 345 345 345 343 345 347 347 349 348 347 347 345 346 347 347 345 342 338 338 336 337 336 336 335 334 334 335 336 336 336 336 334 333 332 331 329 330 330 330 330 329 329 330 329 330 330 330 330 330 331
357 354 353 352 351 352 352 352 352 352 350 349 349 347 348 349 347 348 349 346 344 342 340 344 343 344 342 344 346 346 347 345 346 346 347 347 346 346 347 348 346 342 336 337 336 336 335 334 333 332 333 333 331 331 331 330 329 328 329 328 328 327 327 325 324 325 326 326 325 325 326 328 328 329
359 356 354 354 352 351 351 351 350 351 351 350 349 348 348 348 348 346 347 349 347 343 341 342 346 347 346 346 346 347 344 344 346 347 346 345 346 346 344 344 342 345 335 337 336 335 335 334 333 332 332 331 330 330 330 329 328 327 326 324 323 324 324 324 323 324 323 322 322 324 326 326 326 326
360 358 356 355 353 351 350 350 351 352 351 351 349 349 348 348 348 348 347 348 349 347 343 343 341 346 343 344 345 347 346 343 341 342 345 347 346 346 344 342 340 344 344 345 344 337 334 333 331 333 332 331 330 329 329 329 328 325 323 320 320 323 321 320 320 321 321 321 320 320 322 323 324 324
361 359 358 357 355 352 351 350 352 352 352 350 351 351 350 349 348 347 346 346 345 346 345 343 343 342 344 344 342 346 348 347 345 342 340 341 347 349 347 345 344 341 339 339 337 339 340 338 338 329 328 329 329 328 327 326 325 324 322 319 318 318 318 320 319 317 318 320 320 320 319 318 320 322
360 360 358 357 356 354 352 352 353 355 352 352 352 351 352 350 348 347 346 345 343 344 344 342 340 342 344 344 343 344 345 344 344 344 341 338 338 341 348 350 347 345 343 342 337 338 338 335 336 330 329 330 329 327 327 328 329 326 322 320 323 323 320 319 318 318 318 318 317 318 318 318 318 319
362 361 359 358 357 359 353 347 350 349 349 352 351 353 353 351 349 348 347 345 345 344 343 342 343 342 343 342 342 340 340 340 341 345 343 340 340 340 339 343 346 347 344 343 338 339 341 341 343 340 339 339 334 333 330 333 333 328 323 322 324 325 322 320 319 319 318 317 317 316 317 317 316 317
362 360 360 359 353 350 345 344 344 344 344 346 351 354 354 351 350 348 347 346 345 344 343 340 340 338 337 337 341 339 340 342 344 341 342 341 341 340 338 341 342 342 341 341 340 340 343 340 340 343 340 338 342 339 338 339 333 328 324 324 325 323 323 320 319 318 317 317 316 315 315 315 316 315
362 362 361 362 358 354 346 350 341 343 342 342 345 351 351 350 353 349 347 346 346 343 342 342 342 339 340 340 341 341 340 340 339 340 342 342 340 336 333 331 338 343 343 343 341 339 341 341 337 338 336 334 335 333 334 326 326 324 324 325 325 324 324 323 321 320 317 317 317 316 315 315 315 315
364 363 361 361 362 360 359 358 355 347 341 339 340 345 350 348 348 349 352 349 345 345 342 343 343 341 340 343 344 339 338 342 343 342 341 341 337 336 334 333 332 343 346 342 338 335 341 340 336 335 334 334 334 332 329 324 322 323 322 321 321 321 321 322 322 321 319 319 319 319 319 318 318 317
365 364 362 362 362 362 346 354 358 358 354 338 337 340 346 348 344 339 340 347 351 349 348 345 344 342 343 343 344 345 344 346 343 341 338 339 337 338 336 335 335 339 346 340 336 333 336 336 332 329 333 334 335 332 326 324 323 321 320 322 321 321 321 320 319 320 319 319 317 315 315 317 317 316
365 365 364 362 362 363 362 360 358 358 356 354 350 351 352 353 353 344 339 340 342 348 350 349 346 348 348 347 347 350 347 343 342 339 336 339 336 337 336 339 340 341 341 336 333 331 330 332 331 330 331 331 331 334 329 322 323 321 321 320 319 319 319 319 318 318 317 317 317 316 314 313 312 312
365 365 365 365 363 363 363 359 356 359 357 355 352 351 350 349 350 351 349 347 346 346 346 348 350 351 350 350 348 349 349 346 345 343 341 340 339 339 340 340 340 340 341 338 334 327 329 332 328 328 329 328 330 332 324 323 322 321 319 319 318 317 317 318 318 317 316 316 316 315 313 312 311 311
367 366 366 365 363 364 364 349 337 348 359 356 352 349 349 349 348 348 344 339 340 346 345 345 345 348 347 341 352 350 344 347 346 344 343 342 341 338 333 331 331 333 334 338 333 328 328 331 325 325 326 327 327 329 329 322 322 320 320 318 318 316 315 316 317 317 316 316 316 315 313 311 309 309
367 366 367 366 364 363 364 345 330 336 345 356 353 350 349 348 347 346 349 336 332 333 330 329 328 322 322 324 324 326 333 346 343 341 336 334 334 332 330 330 330 327 329 334 333 328 325 328 325 322 324 325 324 323 322 327 320 319 317 318 317 316 314 314 315 315 316 316 315 314 314 312 310 311
365 364 350 361 365 363 363 334 327 330 345 357 355 352 350 348 346 347 348 346 341 325 324 324 325 326 326 326 327 327 326 328 339 341 333 334 332 329 331 326 328 325 328 329 330 328 324 325 325 322 323 324 323 321 324 324 325 318 316 314 314 314 314 313 313 314 314 314 314 314 313 311 311 319
364 365 354 344 352 357 354 325 326 326 341 357 356 354 351 348 347 347 348 343 340 340 341 339 339 339 336 343 344 341 332 338 344 339 337 334 331 328 328 327 326 324 325 329 333 326 325 324 323 321 318 316 319 321 322 323 324 325 326 325 325 315 314 313 311 310 311 312 313 313 312 311 311 321
363 364 363 349 331 334 333 321 321 322 329 354 357 355 351 348 347 350 350 347 344 343 342 342 341 341 342 342 343 342 340 338 339 335 336 336 334 332 329 326 324 323 325 330 331 327 325 324 320 323 318 314 312 317 319 321 324 323 321 321 320 318 318 316 314 311 310 310 310 311 311 311 311 322
359 360 360 360 334 325 324 318 317 319 323 335 357 357 354 352 351 345 349 347 344 345 345 343 341 342 342 341 341 339 336 334 334 333 336 335 333 330 327 324 322 322 323 327 328 329 324 323 321 320 318 318 316 314 320 320 321 320 323 323 321 320 322 322 321 322 316 311 309 308 309 310 310 316
358 359 359 360 341 322 321 316 315 316 320 326 353 358 334 332 331 349 351 347 345 344 342 339 338 338 337 337 337 337 334 332 332 333 333 333 331 329 328 327 327 323 325 328 324 327 324 322 320 318 317 314 314 315 315 316 318 319 323 323 321 321 322 320 318 320 322 323 326 320 317 312 311 310
358 360 361 358 332 321 318 313 313 315 317 322 343 328 323 325 326 340 349 346 343 341 340 339 338 337 335 334 333 333 333 332 334 333 332 331 330 331 329 329 329 329 329 331 329 327 325 322 324 319 316 316 314 314 314 313 314 319 317 318 320 321 320 318 317 319 320 322 324 317 313 312 311 312
360 359 362 355 323 317 313 311 312 314 317 332 325 319 322 322 328 348 348 344 342 340 338 338 337 336 337 336 334 332 334 333 338 334 332 332 329 332 330 330 328 328 329 328 328 327 327 324 322 324 321 316 314 312 310 314 314 315 314 317 318 317 318 319 318 319 322 324 322 322 321 320 322 329
360 343 331 329 315 316 313 312 313 314 315 319 322 318 319 328 345 346 345 342 343 339 338 336 338 337 337 337 336 338 338 340 336 335 331 330 330 330 331 331 331 329 327 326 326 325 325 324 323 323 323 320 314 313 313 311 312 313 314 315 313 315 317 319 319 320 321 320 320 319 319 319 319 322
335 329 325 319 314 315 318 325 329 331 329 319 322 319 323 342 345 344 344 342 339 338 337 336 336 336 336 335 338 344 340 337 331 330 330 329 326 327 328 328 328 329 328 327 325 324 324 324 323 323 318 319 316 314 315 312 314 314 314 313 313 315 317 318 320 320 320 321 320 320 319 319 319 319
347 347 337 330 320 322 319 324 324 328 326 324 327 330 335 343 344 342 343 342 340 338 338 337 336 336 336 338 339 335 334 334 332 332 331 327 325 327 328 328 326 325 326 327 325 324 324 323 324 322 319 318 317 317 317 315 312 312 313 314 314 311 315 318 320 319 321 320 320 319 320 319 319 323
352 353 330 321 327 328 326 330 333 336 333 328 330 334 338 342 342 339 336 338 342 341 340 338 337 336 338 336 332 331 329 328 329 331 328 326 327 326 327 325 323 322 324 324 324 327 326 324 323 323 321 319 317 318 318 316 313 313 313 314 314 315 317 317 317 319 321 322 318 317 319 318 317 319
349 344 338 331 331 329 329 331 334 335 331 330 331 335 339 342 342 340 339 338 338 339 338 336 336 334 335 333 330 328 328 331 331 329 328 330 330 329 328 323 322 320 320 320 322 323 324 323 324 323 323 322 321 320 316 312 313 314 313 315 315 315 316 317 318 318 323 321 318 317 318 319 319 319
345 343 341 337 335 333 333 333 334 334 332 331 331 333 330 338 340 338 336 336 337 338 336 337 335 334 331 329 328 328 328 329 328 327 325 328 329 328 323 321 321 321 322 320 320 320 323 323 324 322 323 323 322 322 320 316 314 316 316 316 316 315 317 319 319 320 321 319 317 315 315 316 317 316
341 342 338 337 336 333 333 332 333 332 331 330 331 333 335 337 336 333 335 335 334 334 334 335 334 331 328 327 328 327 325 325 325 327 327 329 329 325 323 321 320 321 320 319 319 321 319 321 320 318 318 318 318 321 323 323 319 318 318 317 317 316 318 318 317 319 319 320 317 316 315 314 314 315
338 341 339 335 335 333 332 332 332 332 331 331 332 333 334 335 335 334 334 334 336 333 333 332 330 329 327 327 328 326 324 322 323 325 325 326 325 324 323 322 321 321 320 320 319 320 318 316 316 314 312 310 310 309 315 322 323 321 317 315 315 318 317 317 318 318 317 317 319 316 313 312 313 315
340 341 339 337 335 334 334 335 333 332 332 332 332 333 334 333 334 334 335 333 336 333 332 331 328 326 327 327 327 323 322 323 322 324 327 325 324 323 321 321 321 322 319 320 320 319 318 315 315 312 309 308 307 306 308 326 318 321 323 315 318 316 318 318 318 317 318 318 318 315 313 312 312 314
338 342 340 338 336 335 334 336 335 333 332 332 332 333 334 334 334 335 336 334 333 332 330 329 326 326 326 325 323 323 324 323 324 323 324 325 323 321 320 319 319 319 318 319 320 318 317 315 313 312 310 308 306 306 307 315 321 318 317 326 316 315 314 316 313 315 317 317 315 315 314 311 311 314
336 340 341 340 338 336 335 335 335 334 333 332 332 333 333 334 333 333 331 331 331 331 330 328 327 326 324 324 324 323 322 321 321 321 323 323 322 320 320 318 318 319 318 318 318 317 316 314 313 312 311 309 308 309 311 310 310 314 314 311 319 315 314 314 314 315 314 314 314 315 316 318 315 315
328 336 341 342 340 339 337 338 336 335 334 333 333 334 333 331 331 331 330 329 330 330 328 326 325 322 325 324 324 324 323 323 321 321 321 321 321 320 320 320 318 318 318 317 316 315 315 313 314 313 313 314 315 316 313 311 310 312 313 319 308 315 317 317 315 314 313 314 315 312 312 312 310 313
326 328 334 340 341 339 337 337 337 335 334 334 334 328 332 331 330 329 330 330 328 327 325 324 324 324 324 324 324 323 322 322 323 322 321 321 320 319 319 317 319 318 317 315 315 314 314 316 324 318 323 320 317 315 310 307 307 312 314 317 308 307 309 313 321 318 315 318 315 312 310 308 308 308
330 329 329 334 338 338 337 337 336 335 334 333 332 330 330 329 329 323 326 325 326 325 324 324 325 324 324 324 323 322 323 323 322 321 321 320 319 319 320 317 317 318 316 314 314 314 317 322 319 321 319 316 312 308 307 309 310 311 315 314 318 312 306 307 311 316 324 318 314 310 308 307 308 306
327 330 330 331 333 336 336 335 335 333 331 330 329 329 329 328 327 325 325 324 324 323 324 325 327 326 325 325 324 323 324 324 323 322 320 319 319 319 317 317 317 316 315 315 315 315 315 318 319 315 314 312 311 312 310 310 311 311 312 312 313 316 322 311 308 309 312 313 313 314 314 310 305 302
329 330 331 333 333 334 335 332 331 330 329 328 328 328 327 325 324 324 323 323 324 324 324 325 325 325 325 326 326 326 325 325 324 323 322 320 320 319 318 317 315 315 314 313 312 313 314 314 314 313 311 311 312 311 310 311 310 312 310 311 314 314 313 317 320 315 311 311 311 311 311 311 313 311
332 333 334 334 334 332 330 329 328 328 328 327 327 326 324 324 322 322 323 323 324 325 324 325 325 326 326 325 325 324 324 319 320 321 321 320 319 317 316 315 314 313 312 312 312 313 313 311 312 313 312 311 311 311 310 310 311 310 310 311 311 312 314 314 314 313 313 313 311 312 311 310 311 310
Wind_Speed
9 9 10 7 6 4 5 5 4 5 4 2 3 3 4 4 4 4 4 4 4 7 7 6 6 5 6 5 5 5 5 5 10 8 7 7 5 12 13 12 9 9 9 9 9 9 9 10 10 10 9 9 8 7 7 8 8 8 8 8 7 7 7 6 7 8 9 9 9 9 10 10 11 11
8 9 9 8 7 6 5 6 5 5 5 4 5 5 4 4 5 4 4 4 5 4 6 6 6 5 6 5 5 4 5 6 10 6 6 6 6 12 13 11 10 10 10 10 10 10 9 9 8 8 7 7 6 7 7 8 8 8 8 7 7 6 6 5 5 7 8 8 9 9 10 11 11 11
8 9 9 8 7 7 7 6 7 5 6 6 5 5 5 5 5 5 4 4 4 4 4 5 6 7 6 6 6 5 4 7 6 6 5 5 8 11 9 11 10 10 11 10 10 10 10 9 7 7 7 6 6 6 7 8 8 7 6 5 5 4 4 4 5 6 7 7 8 9 10 11 11 11
9 9 10 9 8 7 7 7 7 6 7 7 7 6 6 6 6 6 5 5 4 5 5 3 4 6 8 6 4 5 5 6 7 5 5 5 11 7 6 12 11 11 11 11 10 10 9 9 9 8 7 6 6 7 7 7 6 5 4 4 4 4 4 4 5 5 5 6 7 8 9 10 11 12
10 10 10 9 9 8 8 7 7 7 8 7 7 7 7 7 7 7 7 6 6 4 5 5 3 5 5 7 5 5 6 6 6 6 6 5 6 6 7 8 13 13 12 12 11 10 10 10 10 9 8 6 7 8 8 6 4 4 5 4 3 4 4 4 5 6 6 6 7 7 8 9 9 10
10 10 11 11 10 9 9 8 8 8 8 8 8 8 8 8 7 7 7 7 6 7 5 5 5 5 5 5 7 6 7 7 7 7 6 6 7 6 6 5 9 14 14 13 13 12 12 11 11 10 8 7 8 8 8 7 5 5 4 3 4 4 4 5 5 6 6 7 7 7 8 9 8 9
11 11 12 12 11 9 10 10 9 9 8 8 9 9 8 8 8 8 8 7 7 7 6 6 7 6 5 6 6 7 6 6 6 7 7 7 6 5 6 7 4 16 14 14 12 13 12 11 11 10 10 10 9 9 8 7 5 4 4 5 5 6 6 6 6 6 6 6 6 7 8 9 9 9
13 13 12 13 13 12 12 11 10 9 9 8 8 9 8 8 9 7 9 9 6 6 7 6 7 6 8 8 6 6 6 7 7 6 6 7 7 7 7 7 6 11 16 14 13 12 12 12 12 11 11 10 8 8 8 7 7 7 7 7 7 7 6 6 6 6 6 6 7 7 8 9 9 9
13 14 13 13 13 13 12 12 11 10 11 9 9 9 8 8 8 7 7 8 8 7 7 6 5 5 5 5 6 7 7 7 6 7 7 7 6 6 7 6 6 10 18 12 13 12 12 12 12 12 11 10 9 9 9 9 8 8 9 9 7 6 6 5 5 5 6 6 7 7 7 8 9 9
14 14 14 13 13 14 14 13 12 12 13 11 10 10 9 9 8 8 8 7 8 8 8 7 6 6 6 6 6 7 7 7 7 7 8 7 7 5 6 7 6 4 7 6 8 9 9 11 13 13 11 11 11 10 10 9 9 10 11 9 5 5 5 6 6 6 6 7 7 8 8 8 8 9
15 15 14 14 14 14 14 14 13 13 13 12 12 11 10 9 9 9 8 8 8 8 8 8 7 6 7 7 7 7 7 7 6 6 6 7 5 6 6 6 6 6 5 6 8 8 7 6 10 12 13 12 12 12 11 11 12 12 12 5 5 6 6 6 7 7 7 7 7 7 8 9 8 9
15 15 15 15 15 15 14 14 13 13 12 11 12 11 10 10 10 9 9 9 9 8 9 8 8 8 7 7 7 6 7 7 7 7 6 7 6 6 5 6 6 5 5 6 5 6 5 4 8 10 12 12 12 12 11 14 14 15 8 7 7 6 7 7 7 7 8 9 9 10 10 10 10 10
16 15 15 15 15 15 15 16 14 14 12 11 12 11 11 11 10 10 9 9 8 8 8 8 7 6 6 7 7 8 8 8 8 6 7 6 5 4 5 6 6 5 5 5 5 5 4 6 4 6 5 6 10 11 15 13 15 12 7 7 5 6 5 6 7 7 9 9 10 10 11 11 11 11
16 17 15 14 17 16 17 16 16 15 14 14 12 11 11 12 11 10 10 9 9 9 9 9 8 9 9 9 8 9 9 8 8 7 6 7 6 5 5 4 4 5 6 5 4 5 4 5 5 3 5 6 9 8 9 5 3 9 8 6 6 5 6 7 8 9 9 10 11 11 11 11 11 11
15 15 15 13 14 13 15 16 18 16 14 15 15 13 13 12 12 11 12 10 9 9 10 8 8 8 8 8 8 8 9 9 9 7 6 6 5 6 6 6 4 4 4 4 4 5 5 4 5 5 7 6 6 7 7 13 14 11 8 7 7 7 6 7 8 9 10 10 11 11 11 11 11 11
13 14 14 14 11 13 14 14 14 16 17 15 16 15 11 14 15 13 11 10 10 10 10 9 9 9 9 7 7 8 9 7 6 6 6 6 7 6 6 5 5 2 2 4 5 5 4 5 7 6 5 6 8 1 11 12 11 11 9 4 1 3 5 6 8 9 9 9 9 10 11 11 11 11
14 13 13 13 13 11 17 15 15 14 14 15 17 17 13 12 14 14 11 9 10 10 9 10 9 10 8 8 7 7 7 4 5 6 6 7 7 6 6 5 5 4 5 2 4 5 4 4 5 6 6 5 4 6 11 12 10 8 4 4 6 5 6 9 9 10 11 10 10 10 11 11 11 12
15 15 13 13 13 12 12 14 16 15 15 13 12 12 11 11 11 12 13 12 9 7 7 8 10 9 9 7 5 6 5 6 6 6 8 8 8 7 6 4 3 3 5 7 5 4 5 4 4 5 4 5 3 5 9 10 10 10 9 9 5 6 9 9 11 11 11 11 11 11 11 11 12 12
16 16 15 15 14 14 14 15 17 16 16 15 14 14 15 16 15 14 15 15 13 13 12 9 8 7 7 8 8 5 5 6 7 6 7 7 6 3 2 4 7 7 8 9 5 4 3 3 5 5 5 4 4 3 12 13 13 11 11 8 8 9 10 11 11 12 11 11 11 12 12 12 12 12
15 15 16 15 15 15 16 18 22 18 15 15 15 16 16 15 15 15 15 16 16 15 13 12 12 11 9 9 9 7 7 7 6 6 4 3 3 5 5 6 7 11 7 11 7 5 4 4 4 5 5 5 5 4 3 13 15 12 10 10 9 11 11 12 12 12 12 12 12 12 12 13 13 12
16 16 17 17 15 16 15 16 22 21 18 15 16 15 16 15 14 14 12 15 15 13 2 1 2 7 10 12 13 11 7 5 6 6 6 7 7 6 7 7 9 4 4 9 8 5 5 3 3 5 4 5 6 6 7 4 11 11 11 12 13 12 12 12 13 13 14 14 13 13 13 13 13 13
16 18 19 18 17 16 16 18 23 22 19 16 16 16 15 15 15 13 13 10 7 8 9 8 8 10 11 10 12 12 11 7 6 8 8 8 7 9 10 8 5 6 3 5 6 5 4 2 3 4 5 5 6 7 4 2 8 13 13 15 14 13 13 14 13 15 16 16 16 14 14 14 12 7
14 15 15 21 20 17 17 21 25 24 20 16 16 17 15 15 16 14 13 12 12 10 9 7 7 6 9 9 8 7 10 9 9 8 8 7 7 7 7 6 6 5 7 2 8 4 4 4 3 3 5 5 4 4 4 4 4 5 5 4 8 14 14 14 15 16 17 17 16 16 16 16 9 6
16 15 15 17 23 22 19 23 26 25 25 18 17 15 15 16 17 15 13 13 13 13 13 11 10 10 9 9 8 8 7 7 10 10 8 7 6 6 7 7 7 6 2 8 5 4 3 2 4 3 4 5 5 3 4 5 3 4 5 5 7 6 12 15 14 19 19 17 17 18 17 17 10 6
16 15 17 17 20 22 19 22 26 27 27 23 17 16 16 16 14 14 14 13 15 13 13 12 11 10 9 10 9 9 9 9 10 10 9 8 8 8 8 8 7 7 2 7 3 3 3 3 4 4 5 5 6 6 4 4 4 5 5 4 5 6 6 6 6 7 12 19 19 19 17 16 14 11
17 16 16 17 16 24 20 21 24 27 26 25 15 15 16 16 16 16 12 12 12 11 10 13 12 12 12 11 11 10 10 10 10 10 9 9 10 9 9 7 6 5 7 3 5 4 3 4 6 5 4 4 6 5 6 5 5 5 3 4 5 6 6 7 7 6 6 5 5 9 11 16 17 18
17 15 14 17 17 26 23 21 23 23 25 21 16 16 16 16 18 16 13 12 12 12 11 12 12 11 12 12 13 13 11 10 10 10 9 9 9 7 8 1 2 2 3 7 5 3 2 4 5 5 5 4 5 6 6 6 4 4 6 5 5 6 6 7 7 7 7 6 7 7 11 15 18 17
16 16 15 14 16 23 23 23 23 22 22 19 23 14 18 17 17 13 11 11 12 11 11 12 12 13 12 11 13 13 11 10 9 8 7 7 9 6 4 4 3 2 2 2 3 4 4 5 6 6 5 5 5 5 6 5 5 5 6 6 7 7 7 7 7 7 7 6 7 7 7 7 6 6
16 14 15 15 19 22 23 24 23 20 23 24 22 16 18 18 12 13 12 12 10 12 12 13 10 10 9 11 10 9 10 8 8 8 6 8 8 6 4 4 4 4 4 4 4 4 5 6 7 5 5 4 5 6 5 6 6 6 6 7 8 7 7 7 8 6 5 7 7 7 8 8 8 7
18 16 11 13 20 22 22 16 11 9 13 20 20 18 18 12 15 14 13 12 13 12 13 15 12 11 10 12 9 7 8 7 10 8 6 7 9 8 6 4 4 5 6 5 5 5 6 7 7 5 5 5 6 6 5 6 6 6 6 7 8 8 8 8 6 6 7 6 6 6 8 8 9 9
12 15 6 8 12 14 20 21 19 19 19 16 13 11 11 12 14 15 14 14 15 14 13 12 13 11 10 8 7 8 8 8 8 7 6 6 7 8 7 7 7 7 8 7 6 6 7 7 7 7 7 6 6 6 5 6 7 7 7 7 7 8 7 7 7 7 5 6 6 8 8 9 9 8
13 12 7 9 8 9 11 11 10 10 9 11 12 10 11 15 15 16 17 14 13 13 13 14 13 10 10 10 8 8 9 10 8 6 6 6 7 7 7 7 7 6 6 7 7 7 7 6 6 6 6 6 7 6 5 6 6 6 7 7 8 9 8 8 7 6 5 5 7 8 8 9 9 9
13 12 7 4 6 8 11 11 12 14 10 10 11 13 12 13 13 14 14 14 14 13 12 12 12 11 10 10 8 10 10 9 8 8 8 7 7 8 8 9 8 8 8 7 7 7 7 7 7 7 7 7 8 7 6 7 7 6 7 7 7 8 7 7 7 7 5 6 8 9 9 8 9 8
14 15 13 10 9 10 9 11 13 14 13 11 10 12 17 15 12 14 16 13 14 13 14 12 12 12 12 11 9 10 9 8 8 9 9 8 8 7 8 8 7 6 6 5 5 5 7 7 7 8 8 8 9 9 9 9 7 6 6 6 7 7 7 7 7 7 6 7 8 10 10 9 9 9
14 13 13 11 10 9 10 11 12 11 11 12 11 12 14 15 15 15 15 14 13 14 15 12 11 11 13 12 11 11 10 10 9 8 8 7 8 8 8 8 8 7 8 7 7 6 5 6 7 7 9 9 10 11 15 13 9 7 5 6 6 7 6 7 8 7 7 7 8 9 10 10 9 8
16 15 14 14 15 15 15 17 16 17 16 16 16 17 16 16 15 16 16 16 16 15 15 13 11 12 12 13 12 11 11 10 9 8 9 7 8 8 9 8 7 8 7 6 6 6 7 8 8 9 9 8 8 7 7 20 16 7 6 4 5 5 6 7 7 7 8 9 8 8 10 11 10 9
18 17 17 17 18 20 21 20 18 18 19 19 19 20 20 18 16 15 15 16 15 14 15 13 12 13 13 13 12 11 10 10 9 8 8 9 9 9 9 9 8 7 6 6 5 6 6 7 8 8 9 8 7 6 3 7 16 15 6 6 5 5 5 6 6 8 8 8 8 9 10 10 11 10
19 17 17 19 20 22 23 22 20 18 18 18 20 20 20 20 17 16 14 14 14 14 15 12 13 14 14 12 12 11 9 9 9 7 9 10 9 9 9 9 9 8 8 6 6 6 6 7 8 9 9 8 7 5 3 5 6 9 14 7 5 6 6 7 8 8 8 8 9 8 9 11 11 11
17 19 18 19 20 21 23 22 21 21 21 20 20 20 19 19 18 18 18 17 16 16 14 13 14 15 14 14 12 11 10 10 9 8 9 10 9 9 9 9 8 7 7 7 7 8 7 8 9 9 9 9 7 4 2 3 4 2 6 16 10 8 8 7 8 8 9 9 9 8 9 9 11 13
17 19 17 17 17 19 20 20 21 21 23 23 21 19 17 16 15 16 16 15 15 15 14 13 15 15 13 13 11 11 9 10 10 10 9 10 10 9 9 8 8 7 6 7 8 8 9 9 9 10 9 9 4 2 3 4 5 5 6 10 20 13 9 8 9 8 8 8 8 10 11 10 11 9
13 16 19 17 17 18 20 21 20 20 20 21 22 21 20 17 18 17 16 16 14 14 13 12 14 13 12 12 11 10 9 9 9 10 8 8 8 10 10 8 7 7 7 8 8 8 9 8 4 6 1 1 1 3 5 5 6 5 6 6 12 19 19 15 10 7 8 7 8 9 11 11 11 10
15 16 16 17 17 16 17 18 18 19 19 18 18 18 19 20 20 24 21 20 16 14 12 12 13 12 12 11 10 9 8 8 8 9 9 10 10 7 6 7 8 8 8 8 8 7 6 6 6 5 4 5 6 7 7 6 5 5 4 5 5 12 19 18 16 14 11 6 7 9 10 10 9 11
14 15 15 15 17 15 14 16 17 16 15 16 15 14 14 13 16 18 14 16 15 14 12 11 10 11 11 10 10 9 8 8 10 10 11 10 7 7 8 9 9 8 8 7 6 7 7 7 5 5 6 7 9 8 7 6 5 5 6 6 6 5 1 12 18 19 17 17 15 12 8 8 9 10
12 12 13 13 12 14 15 11 7 9 14 16 17 17 16 17 17 16 14 14 14 13 12 11 11 11 10 9 9 8 7 8 8 6 6 6 7 7 9 9 8 8 7 7 7 8 6 6 6 7 9 10 9 8 8 7 6 6 5 5 5 6 8 7 6 12 14 15 18 17 17 15 13 14
10 11 12 12 11 5 1 2 10 11 10 13 15 15 15 15 17 17 16 14 12 11 11 10 10 10 9 9 9 8 8 7 6 6 6 7 7 7 8 9 9 9 9 8 8 7 7 7 7 7 8 9 8 7 7 6 5 6 6 7 8 7 7 5 5 6 7 6 7 15 17 15 14 15
Wind_Direction
212 210 210 212 232 227 200 218 204 184 212 200 190 194 202 211 251 194 210 204 230 190 224 199 170 180 174 191 223 198 212 195 159 193 221 228 236 189 199 193 195 201 201 205 213 221 229 234 237 244 248 253 258 263 265 266 266 266 266 266 266 267 270 270 271 273 276 278 279 281 281 281 282 282
221 208 207 203 213 219 206 202 219 172 194 199 197 203 203 210 218 230 231 195 229 187 214 262 156 198 170 191 213 221 220 150 182 230 233 228 226 165 180 181 189 198 202 206 211 217 223 228 237 243 251 255 257 257 259 258 258 262 262 266 269 270 271 275 273 274 278 279 279 279 279 282 284 285
214 214 209 199 209 207 211 203 206 195 184 204 207 201 208 201 220 230 224 241 205 240 196 233 139 174 183 209 202 197 223 155 209 240 232 241 123 151 172 181 188 199 203 207 212 217 221 229 225 228 234 236 236 248 253 252 256 258 262 268 273 267 265 265 263 267 272 275 279 283 287 289 289 289
206 212 213 201 202 202 202 209 206 200 194 200 206 208 205 204 209 215 230 236 235 186 244 205 192 175 175 206 225 197 219 155 171 235 250 141 145 169 187 185 190 199 204 209 214 216 223 222 226 225 229 226 240 251 251 254 257 255 255 255 254 263 269 265 271 277 273 272 273 274 277 281 285 288
207 204 210 208 201 203 202 204 210 204 195 199 207 208 205 207 206 209 213 224 233 232 214 242 235 204 200 172 205 217 222 171 187 212 241 188 203 217 235 184 189 198 204 207 210 214 217 220 224 230 231 236 249 251 251 248 238 240 248 251 254 259 271 273 276 284 284 282 284 285 284 284 287 291
208 201 202 208 203 201 207 208 208 212 200 198 207 203 208 207 205 204 210 217 229 229 213 216 228 266 192 235 182 214 217 225 192 207 208 227 227 235 243 227 178 198 203 204 206 208 214 217 226 229 230 238 242 243 247 241 229 236 244 245 260 261 253 250 272 284 289 294 298 301 301 300 297 294
207 204 201 204 203 200 206 210 214 212 210 203 207 206 205 208 209 198 205 212 218 229 234 204 211 226 223 220 214 200 228 241 232 212 215 223 228 240 248 258 230 187 205 202 203 212 211 219 226 227 234 239 236 243 244 240 236 242 245 256 262 269 276 284 290 295 301 306 306 305 302 300 299 298
205 206 202 204 202 201 203 206 211 213 211 212 206 209 206 206 213 207 194 210 224 227 227 223 231 210 218 194 230 245 216 223 226 230 232 226 231 229 229 228 262 175 195 199 207 209 212 218 224 228 234 233 234 235 237 230 227 229 235 241 251 261 272 282 292 297 305 304 306 299 298 298 302 303
205 205 205 202 202 201 202 203 207 208 209 210 211 210 208 205 208 213 206 200 212 224 233 238 226 228 231 231 213 214 226 220 232 232 237 237 233 231 242 257 243 157 186 194 204 208 211 217 221 230 228 229 229 230 232 231 229 232 240 245 251 269 283 290 290 290 293 294 291 288 292 298 299 302
205 207 206 203 203 202 202 205 203 205 207 207 212 212 208 208 205 209 210 213 206 216 227 233 234 215 228 217 222 222 220 232 227 228 224 231 237 235 241 248 261 195 173 193 202 207 216 214 225 223 224 225 225 227 231 234 233 237 240 240 253 269 277 277 277 278 275 277 282 286 291 293 298 299
206 207 206 205 204 204 204 205 204 202 204 206 208 210 209 206 208 204 211 207 213 216 219 222 231 243 232 235 233 221 231 230 241 245 227 223 214 222 230 247 250 270 255 225 186 216 222 206 214 209 216 216 218 223 225 228 231 233 234 223 228 241 251 259 265 267 276 280 280 284 287 292 292 293
215 209 208 208 206 206 204 205 206 202 202 203 207 206 207 207 206 209 205 208 212 215 219 219 226 218 236 237 242 243 222 230 225 230 238 239 222 212 221 242 263 269 263 281 271 202 209 177 221 202 205 213 219 225 228 231 233 234 224 194 210 221 234 253 268 281 288 293 294 297 297 294 291 292
218 214 210 212 211 204 203 202 205 204 200 200 203 203 203 206 207 209 209 206 210 214 217 221 230 241 226 238 238 227 230 228 230 219 229 234 233 233 226 225 238 258 265 270 276 286 252 246 208 198 212 211 223 227 230 239 227 232 194 198 205 219 244 256 263 269 274 278 281 282 285 290 290 288
215 217 212 211 211 199 195 196 201 205 200 202 207 200 200 201 205 205 209 207 207 211 213 220 230 232 238 234 230 239 234 233 238 242 227 233 230 239 252 270 249 246 250 246 260 270 276 279 288 277 246 246 218 234 225 228 109 132 162 176 195 226 239 248 256 258 262 265 273 277 278 281 283 284
215 218 214 217 202 197 189 193 195 202 205 198 207 205 200 200 201 202 206 210 206 207 214 221 224 239 236 222 229 221 234 226 231 223 227 238 234 233 239 254 227 201 230 254 269 272 273 289 288 270 267 270 281 281 95 121 136 156 163 184 206 216 229 247 252 254 252 256 263 272 276 276 279 281
213 212 213 213 212 202 195 192 192 200 202 201 203 208 205 198 202 211 208 203 206 208 214 221 225 235 231 233 220 228 222 207 208 199 214 224 234 234 236 237 259 97 192 252 269 275 268 253 259 272 286 278 273 100 132 137 142 158 171 160 250 262 264 263 265 266 266 262 261 264 270 273 275 278
211 211 211 211 210 209 187 190 196 195 199 201 203 206 202 202 200 207 218 220 218 211 217 232 230 232 235 233 221 222 247 245 214 177 208 230 231 237 237 244 255 158 171 216 253 267 282 291 284 271 253 262 277 135 146 149 147 137 135 192 204 249 264 266 267 268 268 268 263 257 260 266 270 271
210 208 208 207 206 208 182 192 199 199 200 195 199 203 204 206 204 206 210 212 225 235 236 234 232 220 217 235 238 221 224 242 237 213 220 218 234 227 234 242 246 247 206 217 229 257 263 258 273 283 298 295 271 260 140 150 153 174 185 184 205 234 256 261 263 261 262 263 264 262 257 258 262 267
208 207 207 206 205 202 195 189 195 196 197 196 198 200 207 213 213 209 210 212 214 216 222 229 239 243 231 227 230 233 216 221 220 225 227 229 238 246 250 236 232 241 213 207 196 240 237 244 255 259 273 278 289 323 150 171 173 183 183 179 204 236 246 257 261 264 261 258 257 260 262 259 257 259
208 208 205 204 205 202 202 188 186 189 188 194 193 198 206 210 214 214 210 208 211 216 220 225 227 227 228 215 217 218 201 198 214 198 201 192 192 217 229 241 238 226 205 165 185 218 244 246 270 292 292 290 282 289 284 172 189 181 177 194 214 227 238 248 258 265 269 266 261 259 259 259 260 258
211 208 205 205 202 202 206 183 182 182 181 190 189 194 200 205 207 213 203 196 201 211 187 265 205 87 105 116 114 109 104 162 188 198 202 199 206 206 234 227 246 259 247 175 203 211 224 223 270 280 287 296 294 286 277 232 177 173 198 206 215 224 232 241 250 258 264 268 266 263 258 259 258 259
221 218 206 203 206 203 206 172 181 180 181 189 188 191 193 198 206 205 204 181 164 146 126 130 139 132 119 121 126 132 132 137 187 200 212 212 218 225 222 240 269 275 241 219 165 145 220 247 278 279 281 281 261 256 260 322 169 193 201 214 220 221 228 237 244 251 256 259 261 261 261 260 259 257
217 219 212 204 204 204 197 169 179 180 184 192 190 194 195 197 204 201 191 165 165 164 166 159 147 139 138 138 146 141 147 161 196 215 226 230 239 256 268 252 226 228 240 152 122 179 218 243 229 268 275 269 284 286 279 275 269 234 246 244 218 223 230 232 238 243 247 251 251 254 258 258 249 258
222 222 224 208 206 202 186 173 179 180 187 196 197 194 193 196 202 199 192 177 168 178 184 180 175 171 168 169 165 162 168 180 201 213 220 229 235 238 242 245 241 240 207 133 182 174 243 253 272 255 282 289 284 299 291 276 280 311 299 275 290 230 210 227 235 237 243 243 245 251 253 255 242 249
222 220 225 228 200 200 187 177 179 182 189 197 199 197 195 197 191 186 191 175 175 180 187 193 192 183 178 189 187 179 183 190 198 207 217 222 224 230 230 233 238 223 149 105 84 148 221 265 280 283 264 258 268 270 278 304 283 282 272 267 286 289 293 265 276 270 225 231 238 239 242 249 243 228
229 222 227 232 194 193 188 181 182 186 188 196 203 204 193 177 166 183 182 166 172 177 183 200 193 195 195 196 204 199 191 193 195 201 206 214 225 218 228 231 240 234 125 156 104 152 187 239 252 256 251 258 271 278 290 285 283 271 299 311 285 279 275 282 280 278 294 301 270 221 232 237 237 228
224 222 222 226 187 189 187 181 184 187 189 191 206 201 177 168 172 180 192 168 177 182 186 193 191 194 196 196 206 210 197 194 194 197 206 204 218 222 227 267 215 243 116 137 142 123 164 243 254 251 252 256 277 284 272 276 297 334 300 292 295 292 288 286 278 287 292 287 281 249 218 223 228 230
225 225 217 221 181 186 182 183 182 187 187 192 199 192 176 163 167 178 189 163 178 175 180 192 190 191 192 194 202 204 199 194 174 184 197 198 206 210 199 149 209 191 220 216 194 188 192 232 237 231 238 247 259 271 287 291 284 299 305 303 301 300 296 287 286 280 273 280 302 298 302 306 291 254
237 234 227 210 172 185 184 183 182 185 190 193 191 187 174 165 171 181 186 172 170 180 186 192 185 184 190 202 201 194 199 187 153 163 193 188 196 189 193 176 185 202 223 224 211 217 222 225 239 234 224 237 248 257 269 286 298 294 301 309 295 292 290 291 280 281 294 294 291 301 308 309 300 291
244 261 261 184 176 180 182 176 176 173 186 194 187 183 178 175 181 184 184 165 176 180 189 193 186 184 189 206 198 171 141 143 159 168 170 170 188 186 175 177 200 216 226 221 225 217 214 222 234 240 239 232 240 262 264 275 280 290 294 287 289 289 274 270 285 290 283 287 298 307 308 301 295 294
243 244 237 191 186 175 176 179 181 189 185 185 188 181 189 186 185 184 185 174 174 179 188 187 187 188 185 196 170 141 149 141 154 166 159 180 190 196 181 180 202 210 219 219 212 212 215 220 221 219 225 233 245 247 264 272 275 279 277 277 279 281 293 293 281 278 291 301 313 307 298 294 292 292
231 234 213 182 168 161 162 182 177 185 174 184 186 187 193 193 191 183 179 171 174 179 184 186 185 185 178 193 149 149 158 165 159 155 176 190 201 196 188 189 209 218 229 223 213 194 209 221 221 219 230 238 246 246 250 257 264 269 277 278 273 271 274 282 289 292 304 326 307 297 291 292 296 296
210 211 192 124 174 171 176 180 186 190 172 179 189 191 195 195 190 178 183 180 178 173 173 174 175 179 178 181 150 156 164 159 157 159 177 195 211 207 205 198 200 204 220 214 204 202 193 209 223 232 231 228 229 241 248 255 250 252 261 267 271 276 286 286 295 301 318 305 290 294 293 291 291 292
211 211 211 199 194 193 186 186 189 190 186 185 189 196 200 198 191 179 184 180 174 172 173 170 174 174 170 172 155 163 167 159 165 172 182 188 204 216 215 212 207 212 229 246 245 207 182 199 212 215 226 232 236 232 230 235 243 244 255 268 274 281 280 290 291 300 296 294 299 291 293 296 298 294
220 218 210 210 204 203 206 207 198 190 185 186 186 194 199 204 193 184 184 180 173 173 173 173 170 160 167 170 166 168 171 172 176 171 182 184 197 211 213 209 209 211 219 210 211 218 212 193 204 227 230 233 235 228 223 226 225 232 248 255 271 277 288 295 299 296 298 291 287 289 295 294 294 301
216 218 210 202 196 194 203 204 196 187 189 189 188 193 196 201 197 189 187 179 174 172 173 174 165 156 162 167 169 172 171 168 174 173 170 187 202 212 217 219 219 214 218 214 208 211 207 216 218 231 241 237 238 252 219 209 211 214 226 271 276 287 292 295 295 294 292 284 284 292 291 296 299 302
223 215 211 205 199 197 205 205 199 194 192 191 190 188 190 192 193 191 184 173 171 170 171 169 157 155 154 162 168 174 163 165 172 175 159 190 206 215 216 217 216 220 219 207 210 219 213 223 228 240 247 247 252 250 276 144 205 213 218 237 272 281 289 291 288 283 279 285 295 294 297 302 300 300
228 222 215 209 204 203 208 206 197 193 194 193 191 191 191 188 180 179 172 174 172 171 170 167 154 157 158 163 168 168 162 163 168 186 162 188 207 216 219 225 214 207 203 211 216 219 219 224 230 235 240 251 255 246 260 145 169 217 229 239 260 276 277 282 281 285 289 299 299 302 305 299 298 300
240 233 225 219 213 209 209 208 199 193 191 191 189 190 187 184 178 170 171 174 172 170 170 169 160 159 158 162 163 166 162 161 173 195 179 193 206 213 213 216 221 217 200 197 206 214 211 222 228 236 240 243 247 273 294 293 269 318 186 198 226 250 262 265 275 282 295 299 300 307 299 293 288 279
236 242 241 233 223 216 214 209 204 198 192 188 185 182 179 174 168 165 163 169 167 158 162 162 155 155 157 159 154 159 163 163 177 200 194 198 203 208 219 209 209 212 206 206 209 206 215 219 222 231 234 238 266 341 329 292 292 272 268 210 204 215 240 261 263 282 289 290 304 303 303 306 306 314
241 242 244 242 235 224 217 212 205 199 195 188 184 175 170 168 163 163 163 161 160 153 156 154 155 154 151 149 152 155 165 171 195 204 196 209 215 207 206 199 204 209 213 209 213 223 224 223 158 101 137 266 256 281 253 247 244 251 248 251 205 210 223 225 242 265 277 289 293 296 303 307 311 311
260 250 245 244 244 234 225 220 211 202 193 182 173 169 169 167 164 152 151 151 146 148 149 151 153 149 143 148 154 162 170 171 198 206 197 206 211 198 167 184 209 209 213 216 217 218 226 121 140 173 201 234 247 240 244 240 251 259 277 285 288 202 212 224 226 233 241 271 293 295 297 301 306 308
268 260 253 247 247 250 239 227 207 188 175 166 160 156 155 151 143 143 142 140 138 142 149 144 142 140 142 149 159 169 173 182 209 213 205 205 204 196 196 201 206 210 213 215 223 227 220 153 181 200 229 229 229 234 245 246 257 263 265 269 271 328 229 208 220 226 228 236 238 239 262 287 301 299
260 257 260 257 253 250 241 214 202 194 166 155 149 148 147 145 143 140 136 134 135 139 140 140 142 145 147 149 150 159 182 202 209 198 186 192 201 204 202 194 196 211 222 220 218 221 216 202 201 212 222 223 229 230 234 240 247 254 280 289 307 288 275 284 238 216 229 237 243 246 245 244 248 257
310 275 254 244 235 207 46 250 149 141 142 136 133 135 139 138 137 134 132 129 124 133 134 129 138 143 148 152 160 176 190 189 182 182 193 196 199 204 205 193 189 202 215 216 212 211 214 222 220 214 228 239 238 240 247 253 261 283 271 270 272 271 277 281 293 298 291 297 238 221 232 235 242 249